Regional Weather Roundup
Issued by NWS Huntsville, AL

Home | Current Version | Previous Version | Text Only | Print | Product List | Glossary On
Versions: 1 2 3 4 5 6 7 8 9 10 11 12 13 14 15 16 17 18 19 20 21 22 23 24 25 26 27 28 29 30 31 32 33 34 35 36 37 38 39 40 41 42 43 44 45 46 47 48 49 50
000
ASUS44 KHUN 241010
RWRHUN

WEATHER ROUNDUP FOR THE TENNESSEE VALLEY
NATIONAL WEATHER SERVICE HUNTSVILLE AL
400 AM CST SAT FEB 24 2018

ALZ001>004-241100-
NORTHWEST ALABAMA

CITY           SKY/WX    TMP DP  RH WIND       PRES   REMARKS
SHOALS AIRPORT CLOUDY    64  61  90 SE6       30.08F
$$

ALZ005>007-016-241100-
NORTH CENTRAL ALABAMA

CITY           SKY/WX    TMP DP  RH WIND       PRES   REMARKS
DECATUR AP     CLOUDY    63  62  97 E5        30.10F
HUNTSVILLE AP  CLOUDY    64  63  96 SE6       30.10F
MERIDIANVILLE  CLOUDY    62  61  97 SE3       30.11F
REDSTONE ARSN  CLOUDY    62  62  99 S3        30.10F
VINEMONT AP    FAIR      65  62  89 S12       30.13F
$$

ALZ008>010-241100-
NORTHEAST ALABAMA

CITY           SKY/WX    TMP DP  RH WIND       PRES   REMARKS
ALBERTVILLE    CLOUDY    64  64 100 S6        30.12F
FORT PAYNE     CLOUDY    64  59  82 CALM      30.14F
SCOTTSBORO AP  CLOUDY    63  63 100 CALM      30.13F
$$

TNZ076-096-097-241100-
SOUTHEASTERN MIDDLE TENNESSEE

CITY           SKY/WX    TMP DP  RH WIND       PRES   REMARKS
TULLAHOMA      CLOUDY    61  59  94 SE6       30.11F FOG
WINCHESTER     CLOUDY    59  59 100 E5        30.13F
$$

...SURROUNDING SITES...

CITY           SKY/WX    TMP DP  RH WIND       PRES   REMARKS
ATLANTA        MOCLDY    65  59  81 CALM      30.20S
ANNISTON       MOCLDY    66  62  87 CALM      30.15F
BIRMINGHAM     CLOUDY    70  59  68 S14       30.15F
CHATTANOOGA    CLOUDY    68  59  73 S7        30.13F
CORINTH        CLOUDY    64  64 100 S6        30.04S
DALTON         FAIR      63  61  94 CALM      30.17F
GADSDEN        CLOUDY    61  61 100 CALM      30.14F
GOLDEN TRNGL   CLOUDY    66  66 100 S9        30.09S
HALEYVILLE     CLOUDY    64  64 100 S10       30.11F
JACKSON TN     CLOUDY    62  62 100 SE5       30.02F
MEMPHIS        DRIZZLE   64  64 100 S9        30.01F FOG
NASHVILLE      CLOUDY    61  59  93 CALM      30.08F
ROME           FAIR      66  63  90 CALM      30.14F
SAVANNAH       CLOUDY    63  63 100 S3        30.04F
SELMER         CLOUDY    64  63  94 S6        30.03F
TUPELO         CLOUDY    67  64  90 S10       30.05F
TUSCALOOSA     CLOUDY    69  67  93 S7        30.12F
$$

...GULF COAST WEATHER...

CITY           SKY/WX    TMP DP  RH WIND       PRES   REMARKS
GULFPORT       CLOUDY    72  70  93 S7        30.10F
PASCAGOULA     MOCLDY    71  68  90 SE10      30.11F
MOBILE         CLOUDY    70  68  93 SE10      30.13F
GULF SHORES      N/A     65  65 100 SE6       30.14F FOG
DESTIN         CLOUDY    71  67  87 E6        30.17S FOG
PANAMA CITY    FAIR      64  64 100 E6        30.18S
APPALACHICOLA  FAIR      67  67 100 E5        30.18F
$$




USA.gov is the U.S. government's official web portal to all federal, state and local government web resources and services.